Time,TemperatureF,DewpointF,PressureIn,WindDirection,WindDirectionDegrees,WindSpeedMPH,WindSpeedGustMPH,Humidity,HourlyPrecipIn,Conditions,Clouds,dailyrainin,SoftwareType,DateUTC
2013-10-25 00:01:00,28.6,26.6,29.94,ENE,67,2.2,-999.0,92,-99.99,,,0.00,Acu-Link.com,2013-10-25 04:01:00,
2013-10-25 00:17:00,28.6,26.8,29.94,SW,225,0.0,-999.0,93,-99.99,,,0.00,Acu-Link.com,2013-10-25 04:17:00,
2013-10-25 00:32:00,28.4,26.6,29.94,ENE,67,0.0,-999.0,93,-99.99,,,0.00,Acu-Link.com,2013-10-25 04:32:00,
2013-10-25 00:47:00,28.8,27.3,29.95,SW,225,0.0,-999.0,94,-99.99,,,0.00,Acu-Link.com,2013-10-25 04:47:00,
2013-10-25 01:02:00,28.8,27.3,29.95,NE,45,0.0,-999.0,94,-99.99,,,0.00,Acu-Link.com,2013-10-25 05:02:00,
2013-10-25 01:17:00,28.9,27.4,29.95,SSE,157,0.0,-999.0,94,-99.99,,,0.00,Acu-Link.com,2013-10-25 05:17:00,
2013-10-25 01:32:00,28.6,27.1,29.95,South,180,0.0,-999.0,94,-99.99,,,0.00,Acu-Link.com,2013-10-25 05:32:00,
2013-10-25 01:48:00,28.8,27.3,29.95,NE,45,0.0,-999.0,94,-99.99,,,0.00,Acu-Link.com,2013-10-25 05:48:00,
2013-10-25 02:03:00,28.6,27.1,29.95,North,0,0.0,-999.0,94,-99.99,,,0.00,Acu-Link.com,2013-10-25 06:03:00,
2013-10-25 02:18:00,28.6,27.1,29.96,West,270,0.0,-999.0,94,-99.99,,,0.00,Acu-Link.com,2013-10-25 06:18:00,
2013-10-25 02:33:00,28.6,27.4,29.95,South,180,0.0,-999.0,95,-99.99,,,0.00,Acu-Link.com,2013-10-25 06:33:00,
2013-10-25 02:48:00,28.6,27.4,29.96,ENE,67,0.0,-999.0,95,-99.99,,,0.00,Acu-Link.com,2013-10-25 06:48:00,
2013-10-25 03:04:00,28.2,27.0,29.96,ENE,67,1.7,-999.0,95,-99.99,,,0.00,Acu-Link.com,2013-10-25 07:04:00,
2013-10-25 03:19:00,28.2,27.0,29.96,ENE,67,0.0,-999.0,95,-99.99,,,0.00,Acu-Link.com,2013-10-25 07:19:00,
2013-10-25 03:35:00,28.9,27.9,29.97,NNE,22,0.0,-999.0,96,-99.99,,,0.00,Acu-Link.com,2013-10-25 07:35:00,
2013-10-25 03:50:00,28.9,27.9,29.97,East,90,0.0,-999.0,96,-99.99,,,0.00,Acu-Link.com,2013-10-25 07:50:00,
2013-10-25 04:05:00,28.9,27.9,29.98,ENE,67,3.2,-999.0,96,-99.99,,,0.00,Acu-Link.com,2013-10-25 08:05:00,
2013-10-25 04:20:00,29.3,28.3,29.98,NE,45,3.2,-999.0,96,-99.99,,,0.00,Acu-Link.com,2013-10-25 08:20:00,
2013-10-25 04:35:00,29.7,28.7,29.98,ENE,67,2.2,-999.0,96,-99.99,,,0.00,Acu-Link.com,2013-10-25 08:35:00,
2013-10-25 04:51:00,29.8,28.8,29.98,ENE,67,4.2,-999.0,96,-99.99,,,0.00,Acu-Link.com,2013-10-25 08:51:00,
2013-10-25 05:06:00,30.0,29.0,29.98,NE,45,2.2,-999.0,96,-99.99,,,0.00,Acu-Link.com,2013-10-25 09:06:00,
2013-10-25 05:21:00,30.0,29.0,29.99,ENE,67,4.2,-999.0,96,-99.99,,,0.00,Acu-Link.com,2013-10-25 09:21:00,
2013-10-25 05:36:00,30.0,29.0,29.98,NE,45,3.2,-999.0,96,-99.99,,,0.00,Acu-Link.com,2013-10-25 09:36:00,
2013-10-25 05:51:00,30.0,29.0,30.00,ENE,67,3.2,-999.0,96,-99.99,,,0.00,Acu-Link.com,2013-10-25 09:51:00,
2013-10-25 06:06:00,30.0,29.0,29.99,ENE,67,2.7,-999.0,96,-99.99,,,0.00,Acu-Link.com,2013-10-25 10:06:00,
2013-10-25 06:21:00,30.6,29.6,30.01,East,90,3.2,-999.0,96,-99.99,,,0.00,Acu-Link.com,2013-10-25 10:21:00,
2013-10-25 06:37:00,30.4,29.4,30.02,ENE,67,3.2,-999.0,96,-99.99,,,0.00,Acu-Link.com,2013-10-25 10:37:00,
2013-10-25 06:52:00,30.4,29.4,30.02,SSE,157,2.2,-999.0,96,-99.99,,,0.00,Acu-Link.com,2013-10-25 10:52:00,
2013-10-25 07:07:00,30.6,29.6,30.02,East,90,2.2,-999.0,96,-99.99,,,0.00,Acu-Link.com,2013-10-25 11:07:00,
2013-10-25 07:22:00,30.6,29.6,30.03,NE,45,2.2,-999.0,96,-99.99,,,0.00,Acu-Link.com,2013-10-25 11:22:00,
2013-10-25 07:37:00,30.6,29.6,30.03,NNE,22,3.7,-999.0,96,-99.99,,,0.00,Acu-Link.com,2013-10-25 11:37:00,
2013-10-25 07:52:00,30.4,29.4,30.03,WSW,247,2.2,-999.0,96,-99.99,,,0.00,Acu-Link.com,2013-10-25 11:52:00,
2013-10-25 08:07:00,30.2,29.2,30.04,ENE,67,2.7,-999.0,96,-99.99,,,0.00,Acu-Link.com,2013-10-25 12:07:00,
2013-10-25 08:22:00,30.0,29.0,30.04,South,180,1.7,-999.0,96,-99.99,,,0.00,Acu-Link.com,2013-10-25 12:22:00,
2013-10-25 08:37:00,30.4,29.4,30.05,SSE,157,2.2,-999.0,96,-99.99,,,0.00,Acu-Link.com,2013-10-25 12:37:00,
2013-10-25 08:53:00,30.9,29.6,30.06,NE,45,1.7,-999.0,95,-99.99,,,0.00,Acu-Link.com,2013-10-25 12:53:00,
2013-10-25 09:08:00,32.0,30.5,30.07,WSW,247,1.7,-999.0,94,-99.99,,,0.00,Acu-Link.com,2013-10-25 13:08:00,
2013-10-25 09:23:00,33.3,31.5,30.08,NNW,337,3.7,-999.0,93,-99.99,,,0.00,Acu-Link.com,2013-10-25 13:23:00,
2013-10-25 09:38:00,34.3,31.7,30.08,NNW,337,4.7,-999.0,90,-99.99,,,0.00,Acu-Link.com,2013-10-25 13:38:00,
2013-10-25 09:53:00,34.9,32.3,30.09,ENE,67,0.0,-999.0,90,-99.99,,,0.00,Acu-Link.com,2013-10-25 13:53:00,
2013-10-25 10:08:00,35.6,31.8,30.09,ENE,67,4.2,-999.0,86,-99.99,,,0.00,Acu-Link.com,2013-10-25 14:08:00,
2013-10-25 10:23:00,36.3,30.7,30.10,NW,315,3.7,-999.0,80,-99.99,,,0.00,Acu-Link.com,2013-10-25 14:23:00,
2013-10-25 10:38:00,36.3,29.1,30.10,NNW,337,3.7,-999.0,75,-99.99,,,0.00,Acu-Link.com,2013-10-25 14:38:00,
2013-10-25 10:53:00,36.5,28.0,30.10,ESE,112,3.2,-999.0,71,-99.99,,,0.00,Acu-Link.com,2013-10-25 14:53:00,
2013-10-25 11:09:00,39.2,29.5,30.10,ENE,67,2.7,-999.0,68,-99.99,,,0.00,Acu-Link.com,2013-10-25 15:09:00,
2013-10-25 11:24:00,40.1,28.9,30.10,NE,45,6.3,-999.0,64,-99.99,,,0.00,Acu-Link.com,2013-10-25 15:24:00,
2013-10-25 11:39:00,38.3,28.0,30.11,WNW,292,3.7,-999.0,66,-99.99,,,0.00,Acu-Link.com,2013-10-25 15:39:00,
2013-10-25 11:54:00,40.1,28.5,30.11,NE,45,6.8,-999.0,63,-99.99,,,0.00,Acu-Link.com,2013-10-25 15:54:00,
2013-10-25 12:09:00,39.4,27.5,30.11,East,90,4.7,-999.0,62,-99.99,,,0.00,Acu-Link.com,2013-10-25 16:09:00,
2013-10-25 12:24:00,39.2,28.1,30.11,NE,45,1.7,-999.0,64,-99.99,,,0.00,Acu-Link.com,2013-10-25 16:24:00,
2013-10-25 12:39:00,41.2,28.4,30.11,ENE,67,9.9,-999.0,60,-99.99,,,0.00,Acu-Link.com,2013-10-25 16:39:00,
2013-10-25 12:54:00,41.0,29.0,30.11,NE,45,7.3,-999.0,62,-99.99,,,0.00,Acu-Link.com,2013-10-25 16:54:00,
2013-10-25 13:10:00,43.0,28.4,30.10,ENE,67,7.8,-999.0,56,-99.99,,,0.00,Acu-Link.com,2013-10-25 17:10:00,
2013-10-25 13:25:00,40.1,26.9,30.10,ENE,67,7.3,-999.0,59,-99.99,,,0.00,Acu-Link.com,2013-10-25 17:25:00,
2013-10-25 13:40:00,40.5,26.5,30.10,NNW,337,4.2,-999.0,57,-99.99,,,0.00,Acu-Link.com,2013-10-25 17:40:00,
2013-10-25 13:55:00,43.3,26.9,30.10,NE,45,7.8,-999.0,52,-99.99,,,0.00,Acu-Link.com,2013-10-25 17:55:00,
2013-10-25 14:10:00,44.4,29.3,30.09,WNW,292,5.8,-999.0,55,-99.99,,,0.00,Acu-Link.com,2013-10-25 18:10:00,
2013-10-25 14:25:00,43.3,27.8,30.08,West,270,4.2,-999.0,54,-99.99,,,0.00,Acu-Link.com,2013-10-25 18:25:00,
2013-10-25 14:40:00,40.8,27.2,30.08,NE,45,5.3,-999.0,58,-99.99,,,0.00,Acu-Link.com,2013-10-25 18:40:00,
2013-10-25 14:55:00,45.0,27.0,30.08,ENE,67,6.8,-999.0,49,-99.99,,,0.00,Acu-Link.com,2013-10-25 18:55:00,
2013-10-25 15:11:00,45.1,26.6,30.08,NE,45,4.2,-999.0,48,-99.99,,,0.00,Acu-Link.com,2013-10-25 19:11:00,
2013-10-25 15:26:00,45.5,27.0,30.08,SW,225,6.8,-999.0,48,-99.99,,,0.00,Acu-Link.com,2013-10-25 19:26:00,
2013-10-25 15:41:00,47.3,27.0,30.08,WNW,292,6.8,-999.0,45,-99.99,,,0.00,Acu-Link.com,2013-10-25 19:41:00,
2013-10-25 15:56:00,45.1,26.1,30.08,ESE,112,7.3,-999.0,47,-99.99,,,0.00,Acu-Link.com,2013-10-25 19:56:00,
2013-10-25 16:11:00,42.8,25.5,30.09,SE,135,3.2,-999.0,50,-99.99,,,0.00,Acu-Link.com,2013-10-25 20:11:00,
2013-10-25 16:26:00,43.3,26.4,30.09,SSE,157,3.2,-999.0,51,-99.99,,,0.00,Acu-Link.com,2013-10-25 20:26:00,
2013-10-25 16:41:00,44.1,26.2,30.09,WNW,292,3.7,-999.0,49,-99.99,,,0.00,Acu-Link.com,2013-10-25 20:41:00,
2013-10-25 16:56:00,41.4,26.0,30.08,ENE,67,2.2,-999.0,54,-99.99,,,0.00,Acu-Link.com,2013-10-25 20:56:00,
2013-10-25 17:11:00,39.7,24.9,30.09,East,90,8.9,-999.0,55,-99.99,,,0.00,Acu-Link.com,2013-10-25 21:11:00,
2013-10-25 17:27:00,37.6,24.6,30.09,NE,45,5.3,-999.0,59,-99.99,,,0.00,Acu-Link.com,2013-10-25 21:27:00,
2013-10-25 17:42:00,36.5,24.3,30.09,NW,315,2.2,-999.0,61,-99.99,,,0.00,Acu-Link.com,2013-10-25 21:42:00,
2013-10-25 17:57:00,35.4,24.5,30.10,East,90,4.2,-999.0,64,-99.99,,,0.00,Acu-Link.com,2013-10-25 21:57:00,
2013-10-25 18:12:00,34.9,24.3,30.09,NNE,22,2.7,-999.0,65,-99.99,,,0.00,Acu-Link.com,2013-10-25 22:12:00,
2013-10-25 18:27:00,34.0,24.2,30.10,NW,315,1.1,-999.0,67,-99.99,,,0.00,Acu-Link.com,2013-10-25 22:27:00,
2013-10-25 18:42:00,33.1,24.1,30.09,East,90,1.1,-999.0,69,-99.99,,,0.00,Acu-Link.com,2013-10-25 22:42:00,
2013-10-25 18:57:00,32.2,23.5,30.11,NE,45,0.0,-999.0,70,-99.99,,,0.00,Acu-Link.com,2013-10-25 22:57:00,
2013-10-25 19:12:00,31.3,24.3,30.11,NE,45,0.0,-999.0,75,-99.99,,,0.00,Acu-Link.com,2013-10-25 23:12:00,
2013-10-25 19:27:00,30.2,24.8,30.11,NNW,337,0.0,-999.0,80,-99.99,,,0.00,Acu-Link.com,2013-10-25 23:27:00,
2013-10-25 19:43:00,28.8,24.3,30.11,SW,225,0.0,-999.0,83,-99.99,,,0.00,Acu-Link.com,2013-10-25 23:43:00,
2013-10-25 19:58:00,28.2,23.7,30.12,SW,225,0.0,-999.0,83,-99.99,,,0.00,Acu-Link.com,2013-10-25 23:58:00,
2013-10-25 20:13:00,27.3,23.7,30.12,SW,225,1.7,-999.0,86,-99.99,,,0.00,Acu-Link.com,2013-10-26 00:13:00,
2013-10-25 20:28:00,27.1,23.5,30.12,ENE,67,2.7,-999.0,86,-99.99,,,0.00,Acu-Link.com,2013-10-26 00:28:00,
2013-10-25 20:43:00,27.1,23.8,30.12,SE,135,0.0,-999.0,87,-99.99,,,0.00,Acu-Link.com,2013-10-26 00:43:00,
2013-10-25 20:58:00,26.6,23.5,30.11,ENE,67,1.7,-999.0,88,-99.99,,,0.00,Acu-Link.com,2013-10-26 00:58:00,
2013-10-25 21:14:00,26.4,23.3,30.11,ENE,67,0.0,-999.0,88,-99.99,,,0.00,Acu-Link.com,2013-10-26 01:14:00,
2013-10-25 21:29:00,26.1,23.0,30.11,ENE,67,0.0,-999.0,88,-99.99,,,0.00,Acu-Link.com,2013-10-26 01:29:00,
2013-10-25 21:44:00,25.7,22.9,30.11,WSW,247,0.0,-999.0,89,-99.99,,,0.00,Acu-Link.com,2013-10-26 01:44:00,
2013-10-25 21:59:00,25.7,22.9,30.11,ENE,67,0.0,-999.0,89,-99.99,,,0.00,Acu-Link.com,2013-10-26 01:59:00,
2013-10-25 22:14:00,26.1,23.3,30.12,WSW,247,0.0,-999.0,89,-99.99,,,0.00,Acu-Link.com,2013-10-26 02:14:00,
2013-10-25 22:29:00,25.5,22.7,30.12,WSW,247,0.0,-999.0,89,-99.99,,,0.00,Acu-Link.com,2013-10-26 02:29:00,
2013-10-25 22:44:00,25.0,22.2,30.12,WSW,247,0.0,-999.0,89,-99.99,,,0.00,Acu-Link.com,2013-10-26 02:44:00,
2013-10-25 23:00:00,24.3,21.5,30.12,WSW,247,0.0,-999.0,89,-99.99,,,0.00,Acu-Link.com,2013-10-26 03:00:00,
2013-10-25 23:15:00,23.9,21.9,30.12,ENE,67,2.2,-999.0,92,-99.99,,,0.00,Acu-Link.com,2013-10-26 03:15:00,
2013-10-25 23:30:00,24.6,22.6,30.12,ENE,67,0.0,-999.0,92,-99.99,,,0.00,Acu-Link.com,2013-10-26 03:30:00,
2013-10-25 23:46:00,24.1,22.1,30.12,ENE,67,0.0,-999.0,92,-99.99,,,0.00,Acu-Link.com,2013-10-26 03:46:00,